Weather in Syracuse

Italy     37°04′23″N   15°16′50″E
temp.,
°C
wind,
m/s
gust,
m/s
humid.,
%
clouds,
%
prec.,
mm/h
press.,
hPa
HPBL,
m
16 september, thu
thu1623:00+25nw33565 0.0 101965
02:00+25wsw11537 0.0 101919
05:00+25wsw11555 0.0 101916
08:00+25ssw34535 0.0 1019109
11:00+27s45485 0.0 1020293
14:00+30ssw7843100 0.0 1018698
17:00+31sw674167 0.0 1017462
20:00+27sw67521 0.0 101780
17 september, fri
fri1723:00+26w33506 0.0 101828
02:00+26wsw33466 0.0 101730
05:00+25wsw34475 0.0 101639
08:00+26wsw45470 0.0 101569
11:00+31ssw34390 0.0 1015370
14:00+33sw78340 0.0 1014833
17:00+32sw793590 0.0 1013447
20:00+28sw445171 0.0 101435
18 september, sat
sat1823:00+27sw45547 0.0 101552
02:00+26wsw565215 0.0 101466
05:00+26sw565342 0.0 101371
08:00+26wsw33485 0.0 101459
11:00+30ssw57455 0.0 1014603
14:00+32ssw810418 0.0 1013806
17:00+31sw68405 0.0 1012504
20:00+28ssw5557100 0.0 101357
19 september, sun
sun1923:00+27sw566094 0.0 101398
02:00+26wsw455949 0.0 101477
05:00+25ssw45620 0.0 101383
08:00+26sw33535 0.0 101446
11:00+29s55520 0.0 1015529
14:00+31ssw89480 0.0 1013696
17:00+30ssw89522 0.0 1013428
20:00+27sw56700 0.0 101494
20 september, mon
mon2023:00+26nne23710 0.0 101536
02:00+25se11740 0.0 101513
05:00+25s22705 0.0 101418
08:00+26nne01642 0.0 101531
11:00+27ese32581 0.0 1016234
14:00+26ese546721 0.0 1015244
17:00+26e54725 0.0 1014182
20:00+26nne34745 0.0 101455